CW1248 Weather Reports


Display with metric or nautical units.
time (UTC)temp
F
wind
direction
speed
MPH
gust
MPH
rain 1hr
in
rain 24hr
in
rain mn
in
humidity
%
barometer
mb
20260508041514 42 225 2.0 4.0 0.00 0.00 0.00 68 1010.1
20260508041002 42 221 2.0 3.0 0.00 0.00 0.00 67 1010.1
20260508040503 43 238 1.0 3.0 0.00 0.00 0.00 67 1010.1
20260508040009 43 247 0.0 4.0 0.00 0.00 0.00 66 1010.0
20260508035502 43 215 1.0 4.0 0.00 0.00 0.00 67 1010.0
20260508035007 43 228 3.0 4.0 0.00 0.00 0.00 67 1010.1
20260508034509 43 250 1.0 4.0 0.00 0.00 0.00 67 1010.2
20260508034002 43 225 2.0 4.0 0.00 0.00 0.00 67 1010.2
20260508033505 43 242 2.0 4.0 0.00 0.00 0.00 65 1010.2
20260508033022 43 230 2.0 5.0 0.00 0.00 0.00 65 1010.2
20260508032505 44 218 3.0 5.0 0.00 0.00 0.00 63 1010.4
20260508032006 44 225 2.0 4.0 0.00 0.00 0.00 61 1010.4
20260508031521 44 241 2.0 4.0 0.00 0.00 0.00 61 1010.4
20260508031002 44 219 2.0 4.0 0.00 0.00 0.00 60 1010.4
20260508030502 45 232 2.0 4.0 0.00 0.00 0.00 58 1010.4
20260508030010 45 231 3.0 4.0 0.00 0.00 0.00 54 1010.5
20260508025501 45 229 2.0 4.0 0.00 0.00 0.00 50 1010.5
20260508025003 46 230 1.0 3.0 0.00 0.00 0.00 48 1010.5
20260508024523 46 221 1.0 3.0 0.00 0.00 0.00 46 1010.4
20260508024008 46 254 1.0 3.0 0.00 0.00 0.00 45 1010.4
20260508023506 46 247 1.0 2.0 0.00 0.00 0.00 44 1010.4
20260508023010 47 265 1.0 2.0 0.00 0.00 0.00 42 1010.4
20260508022506 47 232 1.0 2.0 0.00 0.00 0.00 41 1010.3
20260508022007 48 255 1.0 2.0 0.00 0.00 0.00 40 1010.2
20260508021508 48 254 1.0 2.0 0.00 0.00 0.00 41 1010.1
20260508021002 49 254 1.0 2.0 0.00 0.00 0.00 40 1010.1
20260508020502 49 250 1.0 2.0 0.00 0.00 0.00 38 1010.0
20260508020014 50 265 1.0 2.0 0.00 0.00 0.00 38 1009.9
20260508015502 50 250 0.0 2.0 0.00 0.00 0.00 38 1009.9
20260508015005 51 221 0.0 2.0 0.00 0.00 0.00 37 1009.9
20260508014519 51 247 0.0 3.0 0.00 0.00 0.00 39 1009.8
20260508014007 52 265 1.0 3.0 0.00 0.00 0.00 40 1009.8
20260508013504 52 238 1.0 3.0 0.00 0.00 0.00 37 1009.8
20260508013017 53 247 1.0 3.0 0.00 0.00 0.00 38 1009.8
20260508012510 53 282 1.0 4.0 0.00 0.00 0.00 43 1009.8
20260508012004 54 265 1.0 4.0 0.00 0.00 0.00 43 1009.8
20260508011518 54 277 1.0 4.0 0.00 0.00 0.00 33 1009.6
20260508011003 55 270 1.0 4.0 0.00 0.00 0.00 35 1009.5
20260508010503 55 265 0.0 4.0 0.00 0.00 0.00 37 1009.5
20260508010011 55 291 2.0 7.0 0.00 0.00 0.00 32 1009.6
20260508005513 56 309 1.0 7.0 0.00 0.00 0.00 31 1009.6
20260508005005 56 282 1.0 6.0 0.00 0.00 0.00 29 1009.6
20260508004506 56 309 2.0 3.0 0.00 0.00 0.00 31 1009.7
20260508004008 56 298 1.0 9.0 0.00 0.00 0.00 29 1009.7
20260508003509 56 301 2.0 9.0 0.00 0.00 0.00 31 1009.6
20260508003035 57 330 6.0 13.0 0.00 0.00 0.00 27 1009.6
20260508002502 57 292 7.0 13.0 0.00 0.00 0.00 28 1009.6
20260508002008 57 236 5.0 10.0 0.00 0.00 0.00 28 1009.7
20260508001527 57 265 5.0 11.0 0.00 0.00 0.00 29 1009.6
20260508001003 57 321 4.0 13.0 0.00 0.00 0.00 28 1009.6
20260508000502 58 257 5.0 13.0 0.00 0.00 0.00 27 1009.7
20260508000013 58 279 6.0 11.0 0.00 0.00 0.00 26 1009.6
20260507235507 58 329 4.0 12.0 0.00 0.00 0.00 26 1009.7
20260507235003 58 314 5.0 12.0 0.00 0.00 0.00 26 1009.7
20260507234520 58 328 5.0 12.0 0.00 0.00 0.00 27 1009.8
20260507234007 58 275 4.0 12.0 0.00 0.00 0.00 27 1009.9
20260507233509 58 54 4.0 10.0 0.00 0.00 0.00 28 1009.9
20260507233017 58 265 5.0 11.0 0.00 0.00 0.00 26 1010.0
20260507232510 59 28 5.0 14.0 0.00 0.00 0.00 24 1010.0
20260507232012 59 329 5.0 14.0 0.00 0.00 0.00 26 1010.0
20260507231509 59 328 6.0 14.0 0.00 0.00 0.00 28 1010.1
20260507231002 59 339 8.0 14.0 0.00 0.00 0.00 25 1010.1
20260507230506 59 257 6.0 14.0 0.00 0.00 0.00 25 1010.1
20260507230023 59 344 8.0 14.0 0.00 0.00 0.00 25 1010.1
20260507225504 59 265 9.0 16.0 0.00 0.00 0.00 25 1010.1
20260507225008 58 294 4.0 16.0 0.00 0.00 0.00 26 1010.1
20260507224523 59 232 7.0 14.0 0.00 0.00 0.00 27 1010.2
20260507224004 59 303 7.0 14.0 0.00 0.00 0.00 24 1010.2
20260507223508 59 257 7.0 14.0 0.00 0.00 0.00 27 1010.3
20260507223022 59 265 7.0 16.0 0.00 0.00 0.00 27 1010.3
20260507222512 59 250 8.0 16.0 0.00 0.00 0.00 26 1010.2
20260507222006 58 305 3.0 13.0 0.00 0.00 0.00 26 1010.3
20260507221512 59 284 8.0 14.0 0.00 0.00 0.00 30 1010.3
20260507221006 58 275 7.0 18.0 0.00 0.00 0.00 27 1010.2
20260507220502 59 279 11.0 18.0 0.00 0.00 0.00 25 1010.4
20260507220020 59 34 5.0 16.0 0.00 0.00 0.00 28 1010.2
20260507215509 58 287 3.0 15.0 0.00 0.00 0.00 28 1010.4
20260507215006 58 328 6.0 15.0 0.00 0.00 0.00 27 1010.4
20260507214513 59 277 5.0 17.0 0.00 0.00 0.00 27 1010.4
20260507214008 59 111 3.0 17.0 0.00 0.00 0.00 24 1010.5
20260507213508 58 277 9.0 16.0 0.00 0.00 0.00 25 1010.5
20260507213031 58 304 9.0 16.0 0.00 0.00 0.00 29 1010.5
20260507212506 58 257 6.0 14.0 0.00 0.00 0.00 27 1010.4
20260507212012 58 261 6.0 15.0 0.00 0.00 0.00 26 1010.6
20260507211514 58 339 6.0 15.0 0.00 0.00 0.00 27 1010.6
20260507211006 58 236 6.0 13.0 0.00 0.00 0.00 31 1010.7
20260507210505 58 270 9.0 16.0 0.00 0.00 0.00 30 1010.9
20260507210018 58 291 9.0 18.0 0.00 0.00 0.00 27 1010.9
20260507205509 58 265 10.0 18.0 0.00 0.00 0.00 28 1010.9
20260507205008 58 236 5.0 13.0 0.00 0.00 0.00 29 1010.9
20260507204522 57 298 3.0 14.0 0.00 0.00 0.00 26 1011.0
20260507204009 57 244 10.0 16.0 0.00 0.00 0.00 26 1011.0
20260507203508 57 317 7.0 17.0 0.00 0.00 0.00 27 1011.0
20260507203022 57 279 10.0 17.0 0.00 0.00 0.00 27 1011.1
20260507202510 57 330 6.0 15.0 0.00 0.00 0.00 25 1011.1
20260507202010 56 304 1.0 15.0 0.00 0.00 0.00 29 1011.1
20260507201513 56 9 3.0 15.0 0.00 0.00 0.00 27 1011.2
20260507201004 57 321 5.0 15.0 0.00 0.00 0.00 27 1011.1
20260507200502 57 293 7.0 17.0 0.00 0.00 0.00 28 1011.2
20260507200002 57 228 4.0 17.0 0.00 0.00 0.00 31 1011.2
20260507195502 57 236 8.0 15.0 0.00 0.00 0.00 26 1011.4
20260507195002 56 221 2.0 15.0 0.00 0.00 0.00 28 1011.3
20260507194506 57 259 6.0 15.0 0.00 0.00 0.00 32 1011.3
20260507194002 57 250 5.0 15.0 0.00 0.00 0.00 31 1011.6
20260507193502 56 289 8.0 14.0 0.00 0.00 0.00 32 1011.7
20260507193007 56 217 8.0 18.0 0.00 0.00 0.00 31 1011.6
20260507192508 56 281 11.0 18.0 0.00 0.00 0.00 25 1011.7
20260507192001 56 218 2.0 8.0 0.00 0.00 0.00 31 1011.6
20260507191507 55 282 2.0 12.0 0.00 0.00 0.00 29 1011.7
20260507191003 55 316 4.0 12.0 0.00 0.00 0.00 26 1011.6
20260507190503 56 341 5.0 13.0 0.00 0.00 0.00 29 1011.8
20260507190008 56 302 7.0 13.0 0.00 0.00 0.00 27 1011.8
20260507185503 56 306 5.0 11.0 0.00 0.00 0.00 34 1011.9
20260507185002 55 54 1.0 11.0 0.00 0.00 0.00 27 1011.9
20260507184507 55 9 2.0 13.0 0.00 0.00 0.00 29 1011.8
20260507184001 54 336 2.0 15.0 0.00 0.00 0.00 34 1012.0
20260507183505 54 93 7.0 17.0 0.00 0.00 0.00 34 1012.0
20260507183018 55 297 10.0 17.0 0.00 0.00 0.00 30 1012.1
20260507182503 54 261 4.0 14.0 0.00 0.00 0.00 32 1012.0
20260507182002 54 275 9.0 14.0 0.00 0.00 0.00 33 1012.1
20260507181516 54 287 4.0 12.0 0.00 0.00 0.00 35 1012.1
20260507181006 53 22 2.0 12.0 0.00 0.00 0.00 32 1012.1
20260507180502 54 287 3.0 14.0 0.00 0.00 0.00 32 1012.2
20260507180006 55 344 6.0 14.0 0.00 0.00 0.00 31 1012.1
20260507175504 55 317 3.0 13.0 0.00 0.00 0.00 31 1012.1
20260507175003 55 13 4.0 13.0 0.00 0.00 0.00 31 1012.1
20260507174511 55 332 5.0 13.0 0.00 0.00 0.00 29 1012.1
20260507174003 55 334 4.0 12.0 0.00 0.00 0.00 28 1012.2
20260507173510 55 346 4.0 16.0 0.00 0.00 0.00 29 1012.3
20260507173006 55 38 5.0 16.0 0.00 0.00 0.00 32 1012.3
20260507172503 55 47 5.0 13.0 0.00 0.00 0.00 32 1012.3
20260507172007 54 65 4.0 16.0 0.00 0.00 0.00 33 1012.3
20260507171503 54 316 7.0 16.0 0.00 0.00 0.00 30 1012.5
20260507171003 54 344 5.0 15.0 0.00 0.00 0.00 30 1012.5
20260507170503 54 302 6.0 17.0 0.00 0.00 0.00 31 1012.5
20260507170008 54 29 6.0 17.0 0.00 0.00 0.00 29 1012.5
20260507165504 54 246 6.0 17.0 0.00 0.00 0.00 35 1012.7
20260507165002 54 113 3.0 10.0 0.00 0.00 0.00 35 1012.6
20260507164517 53 254 3.0 12.0 0.00 0.00 0.00 35 1012.8
20260507164004 53 76 3.0 14.0 0.00 0.00 0.00 32 1012.8
20260507163503 53 241 6.0 14.0 0.00 0.00 0.00 35 1012.8
20260507163017 52 340 4.0 12.0 0.00 0.00 0.00 35 1012.8
20260507162509 52 328 1.0 15.0 0.00 0.00 0.00 35 1012.9
20260507162003 52 257 8.0 15.0 0.00 0.00 0.00 38 1013.0
20260507161512 51 209 3.0 15.0 0.00 0.00 0.00 38 1012.9
20260507161007 51 300 6.0 15.0 0.00 0.00 0.00 37 1013.0
20260507160504 51 309 5.0 12.0 0.00 0.00 0.00 35 1013.1
20260507160009 51 67 3.0 14.0 0.00 0.00 0.00 36 1013.0
20260507155505 51 317 8.0 14.0 0.00 0.00 0.00 38 1013.1
20260507155003 50 295 7.0 14.0 0.00 0.00 0.00 36 1013.1
20260507154507 50 225 4.0 14.0 0.00 0.00 0.00 40 1013.1
20260507154003 50 298 3.0 14.0 0.00 0.00 0.00 38 1013.1
20260507153506 50 228 3.0 8.0 0.00 0.00 0.00 38 1013.2
20260507153018 50 272 4.0 8.0 0.00 0.00 0.00 37 1013.1
20260507152503 49 250 2.0 9.0 0.00 0.00 0.00 41 1013.2
20260507152007 49 329 3.0 9.0 0.00 0.00 0.00 40 1013.2
20260507151518 49 265 2.0 8.0 0.00 0.00 0.00 40 1013.1
20260507151004 48 348 2.0 8.0 0.00 0.00 0.00 40 1013.1
20260507150503 48 309 2.0 7.0 0.00 0.00 0.00 40 1013.1
20260507150012 48 51 1.0 8.0 0.00 0.00 0.00 42 1013.1
20260507145504 48 249 4.0 8.0 0.00 0.00 0.00 41 1013.1
20260507145003 48 34 2.0 7.0 0.00 0.00 0.00 45 1013.1
20260507144514 47 64 1.0 5.0 0.00 0.00 0.00 44 1013.1
20260507144007 47 117 1.0 5.0 0.00 0.00 0.00 42 1013.1
20260507143511 47 279 1.0 8.0 0.00 0.00 0.00 45 1013.1
20260507143011 46 319 1.0 8.0 0.00 0.00 0.00 48 1013.2
20260507142505 46 282 2.0 5.0 0.00 0.00 0.00 45 1013.2
20260507142009 46 265 2.0 5.0 0.00 0.00 0.00 49 1013.2
20260507141510 45 301 1.0 4.0 0.00 0.00 0.00 49 1013.3
20260507141007 45 296 1.0 5.0 0.00 0.00 0.00 52 1013.3
20260507140503 44 280 2.0 5.0 0.00 0.00 0.00 51 1013.3
20260507140008 44 38 3.0 5.0 0.00 0.00 0.00 53 1013.3
20260507135503 43 325 1.0 7.0 0.00 0.00 0.00 53 1013.3
20260507135006 42 16 2.0 8.0 0.00 0.00 0.00 56 1013.3
20260507134520 41 293 2.0 8.0 0.00 0.00 0.00 59 1013.4
20260507134002 40 20 3.0 8.0 0.00 0.00 0.00 62 1013.3
20260507133507 39 19 1.0 4.0 0.00 0.00 0.00 65 1013.3
20260507133022 38 309 0.0 4.0 0.00 0.00 0.00 67 1013.5
20260507132512 38 323 1.0 6.0 0.00 0.00 0.00 68 1013.5
20260507132008 37 196 2.0 5.0 0.00 0.00 0.00 69 1013.5
20260507131519 37 286 2.0 4.0 0.00 0.00 0.00 70 1013.5
20260507131012 36 273 0.0 3.0 0.00 0.00 0.00 72 1013.5
20260507130505 35 51 0.0 3.0 0.00 0.00 0.00 73 1013.5
20260507130011 35 265 0.0 3.0 0.00 0.00 0.00 75 1013.5
20260507125508 34 314 1.0 3.0 0.00 0.00 0.00 77 1013.6
20260507125005 34 51 0.0 3.0 0.00 0.00 0.00 79 1013.6
20260507124512 33 319 1.0 3.0 0.00 0.00 0.00 82 1013.5
20260507124008 32 9 0.0 3.0 0.00 0.00 0.00 85 1013.5
20260507123510 31 9 1.0 3.0 0.00 0.00 0.00 87 1013.5
20260507123026 30 325 1.0 3.0 0.00 0.00 0.00 88 1013.5
20260507122503 30 301 1.0 3.0 0.00 0.00 0.00 88 1013.6
20260507122009 29 265 0.0 2.0 0.00 0.00 0.00 88 1013.5
20260507121531 28 137 0.0 2.0 0.00 0.00 0.00 87 1013.6
20260507121003 28 9 0.0 2.0 0.00 0.00 0.00 87 1013.6
20260507120504 28 93 0.0 2.0 0.00 0.00 0.00 86 1013.6
20260507120014 28 93 0.0 2.0 0.00 0.00 0.00 86 1013.6
20260507115506 28 93 0.0 2.0 0.00 0.00 0.00 85 1013.6
20260507115007 28 51 0.0 1.0 0.00 0.00 0.00 85 1013.5
20260507114519 28 137 0.0 2.0 0.00 0.00 0.00 85 1013.5
20260507114006 28 146 0.0 2.0 0.00 0.00 0.00 84 1013.5
20260507113507 28 51 0.0 2.0 0.00 0.00 0.00 84 1013.4
20260507113028 28 9 0.0 2.0 0.00 0.00 0.00 84 1013.5
20260507112508 28 291 0.0 2.0 0.00 0.00 0.00 83 1013.4
20260507112012 28 34 1.0 2.0 0.00 0.00 0.00 83 1013.4
20260507111521 28 309 0.0 2.0 0.00 0.00 0.00 82 1013.4
20260507111008 28 298 0.0 2.0 0.00 0.00 0.00 82 1013.4
20260507110509 28 221 0.0 2.0 0.00 0.00 0.00 82 1013.4
20260507110017 28 325 0.0 2.0 0.00 0.00 0.00 82 1013.4
20260507105508 28 51 0.0 2.0 0.00 0.00 0.00 81 1013.4
20260507105007 28 325 0.0 2.0 0.00 0.00 0.00 81 1013.5
20260507104520 28 309 0.0 2.0 0.00 0.00 0.00 80 1013.4
20260507104004 29 298 0.0 2.0 0.00 0.00 0.00 80 1013.4
20260507103508 29 273 1.0 2.0 0.00 0.00 0.00 79 1013.4
20260507103023 29 265 0.0 2.0 0.00 0.00 0.00 79 1013.5
20260507102512 29 265 1.0 2.0 0.00 0.00 0.00 79 1013.5
20260507102007 29 279 1.0 3.0 0.00 0.00 0.00 78 1013.5
20260507101533 29 300 1.0 3.0 0.00 0.00 0.00 78 1013.5
20260507101009 30 298 1.0 3.0 0.00 0.00 0.00 78 1013.5
20260507100503 30 287 1.0 2.0 0.00 0.00 0.00 77 1013.5
20260507100021 30 279 1.0 2.0 0.00 0.00 0.00 77 1013.5
20260507095507 30 265 1.0 2.0 0.00 0.00 0.00 77 1013.5
20260507095008 31 287 1.0 2.0 0.00 0.00 0.00 77 1013.5
20260507094521 31 275 1.0 2.0 0.00 0.00 0.00 77 1013.5
20260507094007 31 265 1.0 2.0 0.00 0.00 0.00 77 1013.5
20260507093507 31 265 1.0 2.0 0.00 0.00 0.00 78 1013.6
20260507093036 31 250 1.0 3.0 0.00 0.00 0.00 78 1013.6
20260507092507 31 247 1.0 4.0 0.00 0.00 0.00 78 1013.7
20260507092007 31 277 2.0 5.0 0.00 0.00 0.00 78 1013.6
20260507091528 31 265 2.0 5.0 0.00 0.00 0.00 79 1013.6
20260507091008 31 248 2.0 4.0 0.00 0.00 0.00 80 1013.6
20260507090508 31 242 1.0 4.0 0.00 0.00 0.00 80 1013.7
20260507090029 31 245 1.0 4.0 0.00 0.00 0.00 80 1013.7
20260507085507 31 245 2.0 4.0 0.00 0.00 0.00 81 1013.7
20260507085009 31 249 2.0 4.0 0.00 0.00 0.00 81 1013.7
20260507084523 31 249 2.0 4.0 0.00 0.00 0.00 81 1013.7
20260507084013 32 236 2.0 4.0 0.00 0.00 0.00 81 1013.7
20260507083507 32 238 2.0 4.0 0.00 0.00 0.00 81 1013.8
20260507083035 32 221 2.0 4.0 0.00 0.00 0.00 81 1013.8
20260507082510 32 265 2.0 3.0 0.00 0.00 0.00 81 1013.8
20260507082009 32 236 1.0 3.0 0.00 0.00 0.00 81 1013.8
20260507081512 32 238 1.0 3.0 0.00 0.00 0.00 81 1013.8
20260507081003 32 255 1.0 3.0 0.00 0.00 0.00 80 1013.8
20260507080504 32 245 2.0 3.0 0.00 0.00 0.00 80 1013.8
20260507080014 33 228 2.0 3.0 0.00 0.00 0.00 80 1013.8
20260507075506 33 221 1.0 3.0 0.00 0.00 0.00 79 1013.8
20260507075004 33 234 1.0 4.0 0.00 0.00 0.00 79 1013.8
20260507074513 33 214 1.0 4.0 0.00 0.00 0.00 79 1013.9
20260507074003 33 232 1.0 4.0 0.00 0.00 0.00 78 1014.0
20260507073503 33 196 1.0 4.0 0.00 0.00 0.00 77 1014.0
20260507073008 33 202 2.0 4.0 0.00 0.00 0.00 76 1014.1
20260507072506 33 247 1.0 3.0 0.00 0.00 0.00 76 1014.1
20260507072006 34 243 1.0 4.0 0.00 0.00 0.00 76 1014.1
20260507071504 34 238 1.0 4.0 0.00 0.00 0.00 75 1014.2
20260507071003 34 215 1.0 3.0 0.00 0.00 0.00 75 1014.2
20260507070507 34 234 1.0 3.0 0.00 0.00 0.00 75 1014.3
20260507070009 34 218 1.0 3.0 0.00 0.00 0.00 74 1014.3
20260507065505 34 241 2.0 3.0 0.00 0.00 0.00 74 1014.3
20260507065005 35 215 2.0 4.0 0.00 0.00 0.00 72 1014.4
20260507064506 35 238 2.0 4.0 0.00 0.00 0.00 71 1014.4
20260507064004 35 230 1.0 3.0 0.00 0.00 0.00 71 1014.4
20260507063504 35 230 1.0 4.0 0.00 0.00 0.00 71 1014.4
20260507063012 36 232 2.0 4.0 0.00 0.00 0.00 70 1014.4
20260507062505 36 225 2.0 4.0 0.00 0.00 0.00 69 1014.4
20260507062005 36 228 2.0 3.0 0.00 0.00 0.00 69 1014.5
20260507061514 36 227 1.0 3.0 0.00 0.00 0.00 68 1014.5
20260507061006 37 238 1.0 2.0 0.00 0.00 0.00 68 1014.6
20260507060504 37 234 1.0 2.0 0.00 0.00 0.00 68 1014.6
20260507060012 37 282 0.0 2.0 0.00 0.00 0.00 68 1014.7
20260507055506 37 238 1.0 2.0 0.00 0.00 0.00 68 1014.6
20260507055005 37 238 1.0 3.0 0.00 0.00 0.00 69 1014.6
20260507054504 37 221 1.0 3.0 0.00 0.00 0.00 69 1014.6
20260507054004 38 232 1.0 3.0 0.00 0.00 0.00 68 1014.6
20260507053503 38 227 1.0 2.0 0.00 0.00 0.00 68 1014.7
20260507053004 38 229 1.0 2.0 0.00 0.00 0.00 69 1014.7
20260507052503 38 265 0.0 2.0 0.00 0.00 0.00 69 1014.7
20260507052006 38 265 0.0 2.0 0.00 0.00 0.00 69 1014.7
20260507051518 38 250 1.0 2.0 0.00 0.00 0.00 68 1014.8
20260507051004 38 238 0.0 2.0 0.00 0.00 0.00 68 1014.8
20260507050504 38 265 1.0 2.0 0.00 0.00 0.00 68 1014.9
20260507050021 38 250 1.0 2.0 0.00 0.00 0.00 68 1014.8
20260507045510 38 265 1.0 2.0 0.00 0.00 0.00 68 1014.8
20260507045004 38 243 1.0 2.0 0.00 0.00 0.00 67 1014.8
20260507044506 38 265 1.0 3.0 0.00 0.00 0.00 67 1014.9
20260507044003 38 265 1.0 3.0 0.00 0.00 0.00 67 1014.9
20260507043503 38 214 1.0 3.0 0.00 0.00 0.00 67 1014.9
20260507043015 38 217 1.0 2.0 0.00 0.00 0.00 66 1014.9
20260507042506 38 205 1.0 2.0 0.00 0.00 0.00 65 1014.9
20260507042009 38 221 1.0 2.0 0.00 0.00 0.00 65 1015.0